RH
67 64 76 47 18 14 12 9 7 5 4 3 4 4 4 8 15 19 21 20 20 20 19 18 20 22 20 23 17 26 24 16 14 17 20 26 24 26 28 30 36 34 41 58 23
68 71 76 72 66 37 16 15 10 9 6 4 4 4 4 5 8 15 20 21 21 21 21 20 23 22 28 32 31 27 21 16 16 18 23 26 26 25 27 26 34 47 19 20 21
45 54 70 74 72 69 64 31 16 14 10 8 5 4 4 5 6 9 17 20 21 22 22 22 20 23 30 30 31 27 25 22 22 21 26 24 25 26 24 21 26 32 45 21 22
8 20 31 60 68 69 65 72 62 19 15 12 9 7 4 4 9 12 10 15 18 21 23 23 23 21 30 26 27 28 27 24 22 25 26 25 23 26 22 20 22 25 35 35 23
4 5 7 9 22 45 70 74 66 66 37 15 14 11 8 6 5 6 9 10 13 17 20 22 24 28 30 26 24 28 26 26 25 28 27 26 27 27 24 24 25 27 30 55 34
2 2 2 3 5 8 13 41 64 65 66 60 20 16 13 9 8 5 6 7 11 12 15 17 24 35 33 32 27 25 28 26 27 26 27 26 24 25 25 26 26 30 32 35 47
3 3 2 2 2 2 3 6 12 49 68 68 68 30 16 13 11 8 6 6 7 12 13 14 18 27 31 33 32 29 29 26 26 26 26 26 26 24 21 23 26 30 31 32 39
2 2 2 2 3 2 2 1 2 4 16 57 72 78 59 34 16 12 10 7 6 7 12 15 14 16 28 33 29 31 29 24 19 21 26 28 19 16 20 22 23 27 29 31 34
3 3 3 2 2 2 2 2 2 2 2 5 31 85 66 51 47 20 13 10 8 8 8 10 17 19 35 37 33 28 24 18 19 22 24 29 21 15 22 24 23 24 26 27 31
4 4 4 4 4 4 3 2 2 2 2 2 3 23 58 66 62 57 22 16 11 9 10 10 19 36 34 32 27 20 20 21 20 17 26 24 26 20 24 26 25 26 27 26 26
5 5 5 6 7 8 9 7 4 3 2 3 32 16 59 70 69 63 58 33 16 12 23 35 37 28 28 29 27 21 17 16 16 18 18 23 26 22 20 22 26 28 27 28 30
6 6 6 6 7 12 18 18 12 7 6 3 4 9 33 55 74 61 55 46 19 16 25 26 31 24 26 27 28 27 24 20 18 20 20 24 24 23 23 24 24 23 27 27 28
8 8 9 10 14 24 30 28 27 19 9 6 4 7 12 56 61 82 77 62 28 28 21 23 18 26 26 24 26 26 28 25 21 21 22 22 23 25 24 25 26 26 26 28 27
14 32 39 35 35 33 30 28 28 34 44 32 18 11 8 22 39 42 74 73 47 35 26 20 20 18 23 27 21 23 25 27 27 23 23 22 20 18 18 19 22 22 25 27 28
22 35 40 40 44 38 39 30 28 35 58 34 45 53 56 29 28 46 42 76 57 41 42 33 21 21 20 20 24 21 23 26 24 23 25 27 25 19 17 18 20 21 25 32 31
39 38 38 38 40 69 39 34 39 87 60 20 45 73 80 84 63 65 75 78 71 49 38 34 38 23 22 22 22 28 31 31 27 27 32 28 22 19 17 16 18 22 21 23 30
42 40 38 42 61 73 85 85 90 76 41 24 35 63 77 71 79 86 78 79 72 63 54 52 46 42 24 26 24 30 34 31 32 33 32 23 20 18 16 17 16 16 19 25 27
42 40 37 33 58 79 84 97 89 50 38 20 34 32 55 61 61 69 74 76 66 61 47 51 48 52 40 28 28 26 32 37 43 31 23 19 20 18 15 15 14 19 23 23 26
17 31 32 31 58 80 91 99 74 60 40 36 29 34 37 46 52 71 68 68 65 56 55 42 40 39 40 30 27 30 31 31 33 30 30 22 18 16 14 16 22 26 23 19 28
37 38 65 74 76 90 100 70 70 58 40 33 31 27 27 28 43 48 65 66 57 56 53 52 43 34 36 37 32 32 36 36 39 52 41 21 15 13 12 12 20 26 25 24 33
86 93 82 86 85 100 94 93 80 73 47 38 33 41 39 33 30 40 60 52 50 56 54 54 53 49 41 36 31 33 41 35 38 44 45 33 21 16 13 12 13 27 27 18 34
90 100 83 82 99 99 93 86 86 77 75 56 45 38 38 39 37 37 58 84 47 47 47 58 55 57 52 45 40 33 36 39 47 48 44 40 34 22 19 18 22 29 28 31 27
100 100 88 95 100 100 99 89 97 91 76 67 65 55 47 46 49 47 50 49 59 62 62 61 57 63 58 49 47 47 40 45 37 47 47 53 42 30 26 23 25 27 32 28 26
100 100 99 98 86 94 99 99 95 100 88 72 68 62 60 61 56 50 46 51 66 67 87 75 61 59 66 53 48 56 52 44 42 46 49 43 39 35 29 32 32 34 33 25 25
100 99 96 84 98 88 97 99 99 97 92 87 80 88 72 72 65 56 52 53 64 87 95 87 78 71 59 55 47 45 51 51 45 45 47 48 40 34 29 29 38 29 28 28 30
100 96 97 99 92 88 80 93 98 85 80 78 81 70 79 75 69 61 56 52 52 54 58 78 99 91 81 53 47 48 49 48 56 45 44 42 44 41 38 34 29 28 41 38 33
100 95 91 90 92 98 91 68 90 83 77 80 78 82 89 81 59 59 60 65 70 80 86 92 92 99 98 67 53 52 49 50 57 59 58 53 45 42 41 41 36 34 36 48 44
Wind_Speed
35 34 32 32 30 30 28 28 27 25 24 25 24 23 24 24 24 22 20 20 15 12 9 7 5 3 3 3 6 7 5 12 9 8 7 8 11 12 14 12 11 10 8 9 4
42 37 35 33 33 32 31 30 30 28 27 27 25 25 24 24 25 25 26 22 19 16 12 11 7 6 5 5 7 7 9 5 6 8 8 8 12 11 13 13 12 11 12 15 9
39 39 42 36 35 36 33 33 32 31 29 29 27 26 25 24 24 30 27 24 23 20 17 15 12 9 10 11 10 6 11 7 7 8 10 8 10 13 13 16 16 15 15 16 12
38 40 39 41 40 40 36 35 34 35 33 31 31 27 27 25 12 29 29 28 26 24 20 18 16 14 10 13 11 15 13 11 7 11 11 12 10 15 15 16 12 16 15 20 16
36 37 37 40 39 41 39 38 38 38 36 35 34 29 29 29 30 29 20 27 28 27 25 23 21 16 17 11 14 17 14 13 12 12 13 14 16 14 16 17 16 16 22 16 18
35 36 37 37 38 40 40 38 41 43 39 37 37 34 32 35 34 29 30 24 22 28 28 27 23 17 19 17 18 9 14 16 15 15 15 16 19 19 20 20 20 19 20 21 20
34 35 35 37 38 39 39 39 41 43 42 41 39 37 39 38 34 29 31 29 29 21 27 29 28 27 18 19 19 18 19 18 20 19 17 13 21 23 19 22 22 24 21 23 24
31 32 33 34 36 37 38 39 40 40 41 41 42 40 45 42 36 35 29 27 31 29 25 29 31 31 26 20 23 19 21 25 23 25 22 17 26 16 15 21 24 23 24 25 26
19 20 22 25 28 32 34 36 39 36 38 38 39 41 50 49 40 35 35 32 29 29 32 32 26 29 20 24 25 24 27 27 23 20 19 22 24 16 13 15 19 21 24 27 28
17 17 17 17 18 18 21 25 32 37 37 38 38 38 43 37 38 42 39 35 35 30 29 35 31 26 27 27 31 30 28 28 28 21 21 24 25 25 15 16 19 18 19 23 27
21 20 20 21 20 19 19 21 22 26 38 40 33 39 23 29 31 42 36 40 36 35 36 25 27 41 36 30 34 32 33 31 26 23 30 28 27 28 26 24 22 22 21 21 24
24 23 24 24 23 19 17 19 21 26 28 36 42 46 38 45 36 19 22 35 40 47 31 31 43 42 31 31 34 34 36 38 32 27 27 28 33 28 27 29 29 30 29 25 25
25 25 25 27 23 17 14 18 17 17 25 33 36 45 44 45 45 35 38 32 32 35 40 46 51 35 33 36 37 38 40 35 35 29 33 32 43 37 34 32 33 35 34 30 29
25 23 23 24 23 17 16 15 15 13 12 21 25 36 44 46 55 51 28 35 36 36 37 45 43 42 35 40 39 43 37 33 34 31 41 30 37 37 33 32 32 32 33 35 32
26 25 24 22 24 17 20 16 12 7 6 6 14 14 18 38 34 34 37 41 41 40 32 45 46 40 43 45 35 48 32 34 33 35 33 44 36 38 32 39 37 32 31 29 28
27 26 26 26 24 19 18 15 9 5 11 8 11 15 19 26 33 27 22 32 39 41 34 34 47 41 42 43 41 35 32 26 29 30 25 50 33 57 41 41 37 32 31 33 32
29 27 28 25 18 17 12 10 7 12 10 19 22 16 16 19 23 27 30 31 36 35 42 48 50 49 37 37 38 38 34 27 23 22 23 39 31 63 10 12 23 29 32 28 28
31 32 30 28 21 18 19 18 18 22 38 22 13 17 20 19 23 23 32 40 40 41 34 45 40 47 55 52 43 45 44 26 21 20 24 40 38 71 40 36 32 28 22 33 27
32 35 35 30 24 27 29 35 34 31 27 30 29 28 25 25 23 21 30 40 43 44 52 42 54 40 45 49 43 43 49 53 38 29 18 33 37 46 35 36 26 24 25 32 27
28 31 32 28 27 32 38 56 45 32 25 20 27 30 31 34 29 30 28 22 43 44 44 54 43 41 47 42 52 47 40 40 35 20 28 39 45 53 36 39 36 29 24 23 25
21 29 29 27 33 42 58 60 43 36 30 33 32 29 30 33 34 37 34 32 23 35 40 46 50 51 38 44 50 44 49 48 43 37 18 21 34 49 51 43 38 29 25 24 25
23 34 32 31 43 52 62 59 47 35 36 36 34 36 36 35 37 37 35 36 25 25 32 41 39 45 58 42 35 52 47 50 32 42 51 38 45 45 24 22 17 20 22 22 21
30 37 33 38 52 53 54 57 50 35 40 36 40 38 38 40 37 37 36 36 31 35 30 22 38 39 47 43 53 43 49 55 53 44 40 25 49 33 40 35 26 23 23 29 28
35 39 40 39 48 52 47 51 54 46 48 37 39 36 37 40 36 41 40 38 31 33 32 34 40 33 33 47 42 52 47 51 51 46 47 48 62 58 28 13 17 23 27 26 30
45 50 43 38 52 49 48 52 46 47 49 41 44 40 43 44 41 38 39 42 37 32 30 31 41 42 41 43 47 45 58 51 53 55 48 61 65 59 38 31 24 26 28 27 29
51 54 37 44 37 51 51 53 49 47 47 52 51 51 47 45 40 38 46 43 38 30 36 37 30 36 44 46 50 54 56 50 52 49 58 62 61 61 42 39 42 39 33 34 39
52 53 48 47 46 41 51 55 56 50 49 49 48 46 48 47 49 47 42 40 36 32 35 36 42 33 33 47 51 51 53 53 55 52 57 63 77 46 46 41 45 39 30 35 37
Wind_Direction
247 247 248 248 249 249 249 250 243 243 244 242 238 238 238 237 236 232 229 231 233 238 239 249 256 256 221 207 236 260 230 248 231 225 214 228 199 206 210 203 210 208 191 177 242
242 244 248 248 248 248 250 250 250 246 243 244 244 243 239 237 238 240 232 234 236 237 241 248 256 261 249 248 240 218 251 293 228 220 219 223 201 220 220 215 220 218 216 228 237
253 249 245 246 249 250 248 249 251 250 247 246 242 245 245 242 239 247 233 232 237 237 241 246 249 247 246 239 242 258 237 289 254 226 211 230 232 232 230 231 237 242 238 226 236
251 252 251 252 243 248 248 251 250 252 250 248 246 242 245 245 241 244 236 235 235 237 238 244 248 249 253 246 250 245 255 252 244 242 232 231 236 246 235 231 246 231 232 236 228
249 251 252 254 253 248 248 251 253 251 251 250 249 247 243 241 238 240 240 237 237 236 238 241 246 246 243 254 245 249 241 260 251 246 238 238 240 240 238 240 244 234 223 226 224
250 250 252 252 253 254 251 246 250 253 253 250 250 247 245 243 242 244 245 242 239 236 236 237 239 236 243 242 244 247 246 247 254 249 251 249 248 248 246 239 236 238 238 227 224
251 252 252 253 254 254 254 249 247 247 251 254 253 251 247 242 246 241 242 242 240 238 235 235 230 239 251 253 256 254 258 259 251 244 242 251 256 244 244 241 238 241 238 235 234
250 251 253 253 255 254 254 254 251 248 247 247 252 255 253 251 244 242 240 243 242 239 239 242 242 241 237 241 253 251 259 258 254 250 247 233 256 281 241 236 237 243 240 242 241
237 242 248 252 255 256 256 256 258 256 253 250 244 248 255 250 248 242 240 239 242 240 241 243 246 242 241 241 251 246 250 251 259 238 237 230 248 258 225 233 241 241 245 243 245
238 239 243 249 255 260 265 263 258 256 254 251 248 246 246 256 254 244 238 236 238 237 241 242 240 241 235 230 236 239 245 251 252 245 237 240 250 247 254 251 245 246 247 243 243
247 251 256 259 262 268 268 271 273 261 251 246 245 241 237 246 248 247 241 234 231 231 231 227 228 233 232 236 242 248 251 254 255 254 253 250 253 252 252 250 255 254 249 249 242
256 262 264 266 267 270 272 264 266 266 267 253 246 244 231 240 238 216 221 229 224 229 222 220 231 236 236 236 243 245 250 252 258 253 258 255 257 255 250 248 252 256 254 249 250
255 257 262 267 270 269 264 263 266 271 275 264 257 250 240 240 245 235 235 233 231 226 221 225 237 239 231 236 240 243 244 252 254 258 259 261 263 258 253 252 253 250 250 248 249
250 252 255 261 266 259 255 261 272 282 293 275 275 261 247 239 248 240 235 226 227 224 227 232 240 235 239 239 235 244 244 250 254 255 259 258 268 258 257 255 254 256 250 245 245
241 244 249 252 258 259 256 260 268 286 289 287 238 242 242 231 235 257 244 227 223 226 218 230 235 235 237 239 237 243 247 249 253 254 262 261 260 264 258 255 251 249 249 250 240
236 236 241 245 248 245 258 254 244 188 239 248 222 225 234 237 239 239 250 226 237 229 229 236 231 235 239 243 241 244 244 247 246 247 249 254 256 274 260 257 254 250 248 247 247
238 239 243 245 245 246 236 199 186 209 230 247 243 246 246 237 246 236 225 216 214 217 228 234 237 229 232 243 236 231 231 238 234 236 240 254 249 256 253 247 251 250 246 240 244
237 240 244 245 240 226 216 198 219 239 229 235 260 241 247 249 244 245 232 232 228 221 232 227 238 228 218 229 231 225 222 218 222 232 249 255 239 253 254 266 261 237 241 233 242
239 240 244 241 226 221 214 213 226 230 245 244 253 255 258 248 244 239 236 233 232 225 230 234 238 239 234 228 231 231 224 227 239 263 274 261 255 262 257 252 245 240 241 257 246
245 244 240 231 218 215 221 235 236 237 244 249 252 248 254 250 246 245 244 241 237 232 233 238 257 240 239 239 233 228 226 230 229 242 249 258 256 257 255 252 247 234 239 244 238
234 233 232 215 209 214 222 230 239 239 240 241 247 248 248 255 251 244 234 248 246 240 234 239 243 253 251 238 224 222 229 234 233 222 238 247 261 262 254 255 256 233 233 252 235
230 230 232 216 207 220 227 229 235 241 241 243 244 244 248 251 252 253 250 244 243 249 241 236 242 244 246 238 242 229 226 227 219 220 229 245 269 247 265 270 262 236 232 227 231
229 228 229 218 217 220 230 235 236 237 238 243 243 241 244 248 257 252 254 253 255 255 251 251 241 243 254 246 244 244 229 229 228 228 230 230 250 274 260 252 250 243 236 238 254
224 227 224 225 231 226 227 235 236 234 239 241 243 244 245 249 248 252 252 253 256 255 261 251 254 243 241 238 235 232 233 233 229 229 235 235 248 244 252 253 234 235 238 247 249
221 227 226 222 225 230 229 233 237 238 238 239 240 237 236 240 243 247 251 256 253 260 256 254 255 254 256 251 244 240 232 232 233 229 235 239 240 248 248 252 243 260 252 245 243
222 226 229 232 238 233 234 234 236 240 234 236 235 236 237 238 243 250 249 250 254 257 264 267 264 251 251 247 243 243 243 240 236 235 237 243 248 253 254 253 256 255 257 245 250
223 231 228 235 231 232 235 237 234 239 240 239 240 241 238 238 241 244 254 257 260 258 258 262 261 267 249 239 242 244 239 242 241 237 238 243 247 254 256 253 248 254 258 246 249